TimeCDT,TemperatureF,Dew PointF,Humidity,Sea Level PressureIn,VisibilityMPH,Wind Direction,Wind SpeedMPH,Gust SpeedMPH,PrecipitationIn,Events,Conditions,WindDirDegrees,DateUTC
12:53 AM,64.0,57.9,80,30.17,10.0,Calm,Calm,-,N/A,,Clear,0,2013-08-17 05:53:00
1:53 AM,63.0,57.9,84,30.17,10.0,Calm,Calm,-,N/A,,Clear,0,2013-08-17 06:53:00
2:53 AM,61.0,57.0,87,30.17,10.0,ENE,3.5,-,N/A,,Clear,60,2013-08-17 07:53:00
3:42 AM,59.0,57.2,94,30.19,1.8,NE,3.5,-,N/A,,Clear,50,2013-08-17 08:42:00
3:49 AM,59.0,57.2,94,30.19,3.0,NE,3.5,-,N/A,,Clear,50,2013-08-17 08:49:00
3:53 AM,60.1,57.0,90,30.17,8.0,Calm,Calm,-,N/A,,Clear,0,2013-08-17 08:53:00
4:53 AM,59.0,55.9,90,30.17,10.0,East,4.6,-,N/A,,Clear,80,2013-08-17 09:53:00
5:53 AM,57.9,54.0,87,30.18,10.0,Calm,Calm,-,N/A,,Clear,0,2013-08-17 10:53:00
6:53 AM,57.9,54.0,87,30.19,10.0,ENE,4.6,-,N/A,,Clear,70,2013-08-17 11:53:00
7:53 AM,61.0,55.0,81,30.19,10.0,Calm,Calm,-,N/A,,Clear,0,2013-08-17 12:53:00
8:53 AM,64.9,57.9,78,30.20,10.0,East,3.5,-,N/A,,Clear,80,2013-08-17 13:53:00
9:53 AM,69.1,57.0,65,30.21,10.0,East,6.9,-,N/A,,Clear,90,2013-08-17 14:53:00
10:53 AM,73.0,55.9,55,30.20,10.0,East,9.2,-,N/A,,Clear,80,2013-08-17 15:53:00
11:53 AM,73.9,55.9,53,30.19,10.0,ENE,11.5,-,N/A,,Partly Cloudy,70,2013-08-17 16:53:00
12:53 PM,75.0,55.9,51,30.18,10.0,East,9.2,-,N/A,,Partly Cloudy,100,2013-08-17 17:53:00
1:53 PM,75.9,55.0,48,30.17,10.0,East,8.1,-,N/A,,Scattered Clouds,100,2013-08-17 18:53:00
2:53 PM,75.9,54.0,46,30.15,10.0,SE,5.8,-,N/A,,Clear,140,2013-08-17 19:53:00
3:53 PM,77.0,53.1,43,30.14,10.0,East,5.8,-,N/A,,Partly Cloudy,80,2013-08-17 20:53:00
4:53 PM,77.0,52.0,42,30.13,10.0,ESE,9.2,-,N/A,,Partly Cloudy,110,2013-08-17 21:53:00
5:53 PM,77.0,54.0,45,30.12,10.0,East,8.1,-,N/A,,Clear,80,2013-08-17 22:53:00
6:53 PM,75.0,55.0,50,30.11,10.0,East,5.8,-,N/A,,Clear,100,2013-08-17 23:53:00
7:53 PM,71.1,55.0,57,30.12,10.0,East,3.5,-,N/A,,Clear,100,2013-08-18 00:53:00
8:53 PM,70.0,55.9,61,30.12,10.0,Calm,Calm,-,N/A,,Clear,0,2013-08-18 01:53:00
9:53 PM,69.1,55.9,63,30.13,10.0,Calm,Calm,-,N/A,,Clear,0,2013-08-18 02:53:00
10:53 PM,66.9,55.0,66,30.13,10.0,SE,4.6,-,N/A,,Clear,130,2013-08-18 03:53:00
11:53 PM,64.9,54.0,68,30.13,10.0,Calm,Calm,-,N/A,,Clear,0,2013-08-18 04:53:00